Location: Unspecified
(43.1763°N, 79.4719°W)
Time: 12:39:44
(UTC-04:00)

Okean 3 - Visible Passes

Search period start: 19 June 2018 00:00
Search period end: 29 June 2018 00:00
Orbit: 576 x 603 km, 82.5° (Epoch: 18 June)

Date Brightness Start Highest point End Pass type
(mag) Time Alt. Az. Time Alt. Az. Time Alt. Az.
19 Jun 6.3 03:43:42 10° NNE 03:46:14 15° ENE 03:48:45 10° ESE visible
20 Jun 5.9 03:51:09 10° NNE 03:54:27 22° ENE 03:57:45 10° SE visible
21 Jun 5.2 03:58:51 10° NNE 04:02:38 32° ENE 04:06:25 10° SE visible
22 Jun 4.4 04:06:42 10° N 04:10:46 47° ENE 04:14:51 10° SSE visible
23 Jun 3.7 04:14:40 10° N 04:18:53 73° E 04:23:04 10° SSE visible
24 Jun 3.4 04:22:44 10° NNW 04:26:57 74° W 04:31:09 10° S visible
25 Jun 6.2 02:55:02 10° NE 02:57:26 15° ENE 02:59:50 10° ESE visible
25 Jun 3.7 04:30:55 10° NNW 04:34:58 48° W 04:39:02 10° SSW visible
26 Jun 5.8 03:02:26 10° NNE 03:05:40 21° ENE 03:08:54 10° ESE visible
26 Jun 4.3 04:39:13 10° NNW 04:42:58 32° W 04:46:43 10° SSW visible
27 Jun 5.1 03:10:07 10° NNE 03:13:51 30° ENE 03:17:36 10° SE visible
27 Jun 4.8 04:47:40 10° NW 04:50:55 22° W 04:54:11 10° SW visible
28 Jun 4.4 03:17:56 10° N 03:22:00 45° ENE 03:25:24 14° SSE visible
28 Jun 5.3 04:56:25 10° NW 04:58:50 15° W 05:01:16 10° WSW visible
